Year,Month,Day,Hour,Minute,Value (Times are PST for temperature in C)
2010,07,14,00,00,12.90
2010,07,14,00,01,12.90
2010,07,14,00,02,12.80
2010,07,14,00,03,12.80
2010,07,14,00,04,12.70
2010,07,14,00,05,12.70
2010,07,14,00,06,12.70
2010,07,14,00,07,12.70
2010,07,14,00,08,12.60
2010,07,14,00,09,12.60
2010,07,14,00,10,12.60
2010,07,14,00,11,12.60
2010,07,14,00,12,12.60
2010,07,14,00,13,12.60
2010,07,14,00,14,12.60
2010,07,14,00,15,12.60
2010,07,14,00,16,12.60
2010,07,14,00,17,12.60
2010,07,14,00,18,12.60
2010,07,14,00,19,12.60
2010,07,14,00,20,12.50
2010,07,14,00,21,12.50
2010,07,14,00,22,12.50
2010,07,14,00,23,12.50
2010,07,14,00,24,12.50
2010,07,14,00,25,12.40
2010,07,14,00,26,12.40
2010,07,14,00,27,12.40
2010,07,14,00,28,12.40
2010,07,14,00,29,12.40
2010,07,14,00,30,12.40
2010,07,14,00,31,12.40
2010,07,14,00,32,12.30
2010,07,14,00,33,12.30
2010,07,14,00,34,12.30
2010,07,14,00,35,12.30
2010,07,14,00,36,12.30
2010,07,14,00,37,12.30
2010,07,14,00,38,12.30
2010,07,14,00,39,12.20
2010,07,14,00,40,12.20
2010,07,14,00,41,12.20
2010,07,14,00,42,12.20
2010,07,14,00,43,12.20
2010,07,14,00,44,12.20
2010,07,14,00,45,12.20
2010,07,14,00,46,12.20
2010,07,14,00,47,12.20
2010,07,14,00,48,12.20
2010,07,14,00,49,12.10
2010,07,14,00,50,12.10
2010,07,14,00,51,12.10
2010,07,14,00,52,12.10
2010,07,14,00,53,12.10
2010,07,14,00,54,12.10
2010,07,14,00,55,12.10
2010,07,14,00,56,12.10
2010,07,14,00,57,12.00
2010,07,14,00,58,12.00
2010,07,14,00,59,12.00
2010,07,14,01,00,11.90
2010,07,14,01,01,11.90
2010,07,14,01,02,11.90
2010,07,14,01,03,11.90
2010,07,14,01,04,11.90
2010,07,14,01,05,11.80
2010,07,14,01,06,11.80
2010,07,14,01,07,11.80
2010,07,14,01,08,11.80
2010,07,14,01,09,11.70
2010,07,14,01,10,11.70
2010,07,14,01,11,11.70
2010,07,14,01,12,11.70
2010,07,14,01,13,11.70
2010,07,14,01,14,11.70
2010,07,14,01,15,11.70
2010,07,14,01,16,11.70
2010,07,14,01,17,11.60
2010,07,14,01,18,11.60
2010,07,14,01,19,11.60
2010,07,14,01,20,11.60
2010,07,14,01,21,11.60
2010,07,14,01,22,11.60
2010,07,14,01,23,11.60
2010,07,14,01,24,11.60
2010,07,14,01,25,11.60
2010,07,14,01,26,11.50
2010,07,14,01,27,11.50
2010,07,14,01,28,11.50
2010,07,14,01,29,11.50
2010,07,14,01,30,11.40
2010,07,14,01,31,11.40
2010,07,14,01,32,11.40
2010,07,14,01,33,11.40
2010,07,14,01,34,11.40
2010,07,14,01,35,11.40
2010,07,14,01,36,11.40
2010,07,14,01,37,11.40
2010,07,14,01,38,11.40
2010,07,14,01,39,11.40
2010,07,14,01,40,11.40
2010,07,14,01,41,11.40
2010,07,14,01,42,11.40
2010,07,14,01,43,11.30
2010,07,14,01,44,11.30
2010,07,14,01,45,11.30
2010,07,14,01,46,11.30
2010,07,14,01,47,11.30
2010,07,14,01,48,11.30
2010,07,14,01,49,11.30
2010,07,14,01,50,11.30
2010,07,14,01,51,11.20
2010,07,14,01,52,11.20
2010,07,14,01,53,11.20
2010,07,14,01,54,11.20
2010,07,14,01,55,11.20
2010,07,14,01,56,11.20
2010,07,14,01,57,11.20
2010,07,14,01,58,11.20
2010,07,14,01,59,11.20
2010,07,14,02,00,11.20
2010,07,14,02,01,11.20
2010,07,14,02,02,11.20
2010,07,14,02,03,11.20
2010,07,14,02,04,11.20
2010,07,14,02,05,11.20
2010,07,14,02,06,11.10
2010,07,14,02,07,11.10
2010,07,14,02,08,11.10
2010,07,14,02,09,11.10
2010,07,14,02,10,11.10
2010,07,14,02,11,11.10
2010,07,14,02,12,11.10
2010,07,14,02,13,11.10
2010,07,14,02,14,11.00
2010,07,14,02,15,11.00
2010,07,14,02,16,11.00
2010,07,14,02,17,10.90
2010,07,14,02,18,10.90
2010,07,14,02,19,10.90
2010,07,14,02,20,10.90
2010,07,14,02,21,10.80
2010,07,14,02,22,10.80
2010,07,14,02,23,10.80
2010,07,14,02,24,10.80
2010,07,14,02,25,10.80
2010,07,14,02,26,10.80
2010,07,14,02,27,10.80
2010,07,14,02,28,10.80
2010,07,14,02,29,10.80
2010,07,14,02,30,10.80
2010,07,14,02,31,10.80
2010,07,14,02,32,10.80
2010,07,14,02,33,10.80
2010,07,14,02,34,10.80
2010,07,14,02,35,10.80
2010,07,14,02,36,10.80
2010,07,14,02,37,10.80
2010,07,14,02,38,10.80
2010,07,14,02,39,10.80
2010,07,14,02,40,10.80
2010,07,14,02,41,10.70
2010,07,14,02,42,10.70
2010,07,14,02,43,10.70
2010,07,14,02,44,10.70
2010,07,14,02,45,10.70
2010,07,14,02,46,10.70
2010,07,14,02,47,10.60
2010,07,14,02,48,10.60
2010,07,14,02,49,10.60
2010,07,14,02,50,10.60
2010,07,14,02,51,10.60
2010,07,14,02,52,10.60
2010,07,14,02,53,10.60
2010,07,14,02,54,10.60
2010,07,14,02,55,10.60
2010,07,14,02,56,10.50
2010,07,14,02,57,10.50
2010,07,14,02,58,10.50
2010,07,14,02,59,10.50
2010,07,14,03,00,10.50
2010,07,14,03,01,10.50
2010,07,14,03,02,10.50
2010,07,14,03,03,10.50
2010,07,14,03,04,10.50
2010,07,14,03,05,10.50
2010,07,14,03,06,10.50
2010,07,14,03,07,10.40
2010,07,14,03,08,10.40
2010,07,14,03,09,10.40
2010,07,14,03,10,10.40
2010,07,14,03,11,10.40
2010,07,14,03,12,10.40
2010,07,14,03,13,10.40
2010,07,14,03,14,10.40
2010,07,14,03,15,10.40
2010,07,14,03,16,10.40
2010,07,14,03,17,10.40
2010,07,14,03,18,10.40
2010,07,14,03,19,10.30
2010,07,14,03,20,10.40
2010,07,14,03,21,10.40
2010,07,14,03,22,10.30
2010,07,14,03,23,10.30
2010,07,14,03,24,10.30
2010,07,14,03,25,10.30
2010,07,14,03,26,10.30
2010,07,14,03,27,10.30
2010,07,14,03,28,10.30
2010,07,14,03,29,10.30
2010,07,14,03,30,10.30
2010,07,14,03,31,10.30
2010,07,14,03,32,10.30
2010,07,14,03,33,10.30
2010,07,14,03,34,10.30
2010,07,14,03,35,10.30
2010,07,14,03,36,10.30
2010,07,14,03,37,10.40
2010,07,14,03,38,10.40
2010,07,14,03,39,10.40
2010,07,14,03,40,10.40
2010,07,14,03,41,10.40
2010,07,14,03,42,10.40
2010,07,14,03,43,10.40
2010,07,14,03,44,10.40
2010,07,14,03,45,10.40
2010,07,14,03,46,10.40
2010,07,14,03,47,10.40
2010,07,14,03,48,10.40
2010,07,14,03,49,10.40
2010,07,14,03,50,10.40
2010,07,14,03,51,10.40
2010,07,14,03,52,10.40
2010,07,14,03,53,10.40
2010,07,14,03,54,10.40
2010,07,14,03,55,10.40
2010,07,14,03,56,10.50
2010,07,14,03,57,10.50
2010,07,14,03,58,10.50
2010,07,14,03,59,10.50
2010,07,14,04,00,10.50
2010,07,14,04,01,10.50
2010,07,14,04,02,10.50
2010,07,14,04,03,10.50
2010,07,14,04,04,10.50
2010,07,14,04,05,10.50
2010,07,14,04,06,10.50
2010,07,14,04,07,10.50
2010,07,14,04,08,10.60
2010,07,14,04,09,10.60
2010,07,14,04,10,10.60
2010,07,14,04,11,10.60
2010,07,14,04,12,10.60
2010,07,14,04,13,10.60
2010,07,14,04,14,10.60
2010,07,14,04,15,10.60
2010,07,14,04,16,10.60
2010,07,14,04,17,10.60
2010,07,14,04,18,10.60
2010,07,14,04,19,10.60
2010,07,14,04,20,10.50
2010,07,14,04,21,10.50
2010,07,14,04,22,10.50
2010,07,14,04,23,10.50
2010,07,14,04,24,10.50
2010,07,14,04,25,10.50
2010,07,14,04,26,10.50
2010,07,14,04,27,10.50
2010,07,14,04,28,10.50
2010,07,14,04,29,10.50
2010,07,14,04,30,10.50
2010,07,14,04,31,10.50
2010,07,14,04,32,10.50
2010,07,14,04,33,10.50
2010,07,14,04,34,10.50
2010,07,14,04,35,10.50
2010,07,14,04,36,10.50
2010,07,14,04,37,10.50
2010,07,14,04,38,10.50
2010,07,14,04,39,10.50
2010,07,14,04,40,10.50
2010,07,14,04,41,10.50
2010,07,14,04,42,10.50
2010,07,14,04,43,10.50
2010,07,14,04,44,10.50
2010,07,14,04,45,10.50
2010,07,14,04,46,10.50
2010,07,14,04,47,10.50
2010,07,14,04,48,10.50
2010,07,14,04,49,10.50
2010,07,14,04,50,10.50
2010,07,14,04,51,10.40
2010,07,14,04,52,10.40
2010,07,14,04,53,10.40
2010,07,14,04,54,10.40
2010,07,14,04,55,10.40
2010,07,14,04,56,10.40
2010,07,14,04,57,10.40
2010,07,14,04,58,10.40
2010,07,14,04,59,10.40
2010,07,14,05,00,10.30
2010,07,14,05,01,10.30
2010,07,14,05,02,10.30
2010,07,14,05,03,10.30
2010,07,14,05,04,10.30
2010,07,14,05,05,10.30
2010,07,14,05,06,10.30
2010,07,14,05,07,10.30
2010,07,14,05,08,10.30
2010,07,14,05,09,10.30
2010,07,14,05,10,10.30
2010,07,14,05,11,10.30
2010,07,14,05,12,10.30
2010,07,14,05,13,10.30
2010,07,14,05,14,10.30
2010,07,14,05,15,10.30
2010,07,14,05,16,10.20
2010,07,14,05,17,10.20
2010,07,14,05,18,10.20
2010,07,14,05,19,10.20
2010,07,14,05,20,10.20
2010,07,14,05,21,10.30
2010,07,14,05,22,10.30
2010,07,14,05,23,10.20
2010,07,14,05,24,10.20
2010,07,14,05,25,10.20
2010,07,14,05,26,10.20
2010,07,14,05,27,10.20
2010,07,14,05,28,10.20
2010,07,14,05,29,10.20
2010,07,14,05,30,10.20
2010,07,14,05,31,10.20
2010,07,14,05,32,10.20
2010,07,14,05,33,10.20
2010,07,14,05,34,10.20
2010,07,14,05,35,10.20
2010,07,14,05,36,10.20
2010,07,14,05,37,10.20
2010,07,14,05,38,10.20
2010,07,14,05,39,10.20
2010,07,14,05,40,10.20
2010,07,14,05,41,10.20
2010,07,14,05,42,10.20
2010,07,14,05,43,10.10
2010,07,14,05,44,10.10
2010,07,14,05,45,10.10
2010,07,14,05,46,10.10
2010,07,14,05,47,10.10
2010,07,14,05,48,10.10
2010,07,14,05,49,10.10
2010,07,14,05,50,10.10
2010,07,14,05,51,10.00
2010,07,14,05,52,10.00
2010,07,14,05,53,10.00
2010,07,14,05,54,10.00
2010,07,14,05,55,10.00
2010,07,14,05,56,10.00
2010,07,14,05,57,10.00
2010,07,14,05,58,10.00
2010,07,14,05,59,10.00
2010,07,14,06,00,10.00
2010,07,14,06,01,10.00
2010,07,14,06,02,10.00
2010,07,14,06,03,10.00
2010,07,14,06,04,10.00
2010,07,14,06,05,9.90
2010,07,14,06,06,9.90
2010,07,14,06,07,9.90
2010,07,14,06,08,9.90
2010,07,14,06,09,9.90
2010,07,14,06,10,9.90
2010,07,14,06,11,9.90
2010,07,14,06,12,9.90
2010,07,14,06,13,9.90
2010,07,14,06,14,9.90
2010,07,14,06,15,9.90
2010,07,14,06,16,9.90
2010,07,14,06,17,9.90
2010,07,14,06,18,9.90
2010,07,14,06,19,9.90
2010,07,14,06,20,9.90
2010,07,14,06,21,9.90
2010,07,14,06,22,9.90
2010,07,14,06,23,9.90
2010,07,14,06,24,9.90
2010,07,14,06,25,9.90
2010,07,14,06,26,9.90
2010,07,14,06,27,9.90
2010,07,14,06,28,9.90
2010,07,14,06,29,9.90
2010,07,14,06,30,9.90
2010,07,14,06,31,9.90
2010,07,14,06,32,9.90
2010,07,14,06,33,9.90
2010,07,14,06,34,9.90
2010,07,14,06,35,9.90
2010,07,14,06,36,9.90
2010,07,14,06,37,9.90
2010,07,14,06,38,9.90
2010,07,14,06,39,9.90
2010,07,14,06,40,9.90
2010,07,14,06,41,10.00
2010,07,14,06,42,10.00
2010,07,14,06,43,10.00
2010,07,14,06,44,10.00
2010,07,14,06,45,10.00
2010,07,14,06,46,10.00
2010,07,14,06,47,10.00
2010,07,14,06,48,10.10
2010,07,14,06,49,10.10
2010,07,14,06,50,10.10
2010,07,14,06,51,10.10
2010,07,14,06,52,10.10
2010,07,14,06,53,10.20
2010,07,14,06,54,10.20
2010,07,14,06,55,10.20
2010,07,14,06,56,10.20
2010,07,14,06,57,10.20
2010,07,14,06,58,10.20
2010,07,14,06,59,10.30
2010,07,14,07,00,10.30
2010,07,14,07,01,10.40
2010,07,14,07,02,10.40
2010,07,14,07,03,10.50
2010,07,14,07,04,10.60
2010,07,14,07,05,10.70
2010,07,14,07,06,10.80
2010,07,14,07,07,10.90
2010,07,14,07,08,11.00
2010,07,14,07,09,11.20
2010,07,14,07,10,11.20
2010,07,14,07,11,11.30
2010,07,14,07,12,11.40
2010,07,14,07,13,11.50
2010,07,14,07,14,11.60
2010,07,14,07,15,11.70
2010,07,14,07,16,11.80
2010,07,14,07,17,11.90
2010,07,14,07,18,12.00
2010,07,14,07,19,12.10
2010,07,14,07,20,12.20
2010,07,14,07,21,12.30
2010,07,14,07,22,12.40
2010,07,14,07,23,12.50
2010,07,14,07,24,12.60
2010,07,14,07,25,12.70
2010,07,14,07,26,12.80
2010,07,14,07,27,12.80
2010,07,14,07,28,12.90
2010,07,14,07,29,13.00
2010,07,14,07,30,13.10
2010,07,14,07,31,13.20
2010,07,14,07,32,13.30
2010,07,14,07,33,13.50
2010,07,14,07,34,13.60
2010,07,14,07,35,13.80
2010,07,14,07,36,13.90
2010,07,14,07,37,14.10
2010,07,14,07,38,14.30
2010,07,14,07,39,14.40
2010,07,14,07,40,14.60
2010,07,14,07,41,14.70
2010,07,14,07,42,14.70
2010,07,14,07,43,14.80
2010,07,14,07,44,14.90
2010,07,14,07,45,15.00
2010,07,14,07,46,15.00
2010,07,14,07,47,15.00
2010,07,14,07,48,15.00
2010,07,14,07,49,15.10
2010,07,14,07,50,15.20
2010,07,14,07,51,15.30
2010,07,14,07,52,15.30
2010,07,14,07,53,15.30
2010,07,14,07,54,15.30
2010,07,14,07,55,15.40
2010,07,14,07,56,15.40
2010,07,14,07,57,15.50
2010,07,14,07,58,15.60
2010,07,14,07,59,15.60
2010,07,14,08,00,15.70
2010,07,14,08,01,15.70
2010,07,14,08,02,15.80
2010,07,14,08,03,15.80
2010,07,14,08,04,15.90
2010,07,14,08,05,15.90
2010,07,14,08,06,15.90
2010,07,14,08,07,15.90
2010,07,14,08,08,15.90
2010,07,14,08,09,15.90
2010,07,14,08,10,15.90
2010,07,14,08,11,16.00
2010,07,14,08,12,16.00
2010,07,14,08,13,16.00
2010,07,14,08,14,16.00
2010,07,14,08,15,16.00
2010,07,14,08,16,16.00
2010,07,14,08,17,15.90
2010,07,14,08,18,15.90
2010,07,14,08,19,15.90
2010,07,14,08,20,16.00
2010,07,14,08,21,16.00
2010,07,14,08,22,16.00
2010,07,14,08,23,16.10
2010,07,14,08,24,16.10
2010,07,14,08,25,16.10
2010,07,14,08,26,16.20
2010,07,14,08,27,16.20
2010,07,14,08,28,16.20
2010,07,14,08,29,16.20
2010,07,14,08,30,16.30
2010,07,14,08,31,16.30
2010,07,14,08,32,16.30
2010,07,14,08,33,16.30
2010,07,14,08,34,16.40
2010,07,14,08,35,16.40
2010,07,14,08,36,16.40
2010,07,14,08,37,16.40
2010,07,14,08,38,16.40
2010,07,14,08,39,16.50
2010,07,14,08,40,16.50
2010,07,14,08,41,16.50
2010,07,14,08,42,16.60
2010,07,14,08,43,16.60
2010,07,14,08,44,16.60
2010,07,14,08,45,16.60
2010,07,14,08,46,16.60
2010,07,14,08,47,16.60
2010,07,14,08,48,16.70
2010,07,14,08,49,16.70
2010,07,14,08,50,16.70
2010,07,14,08,51,16.70
2010,07,14,08,52,16.70
2010,07,14,08,53,16.70
2010,07,14,08,54,16.70
2010,07,14,08,55,16.70
2010,07,14,08,56,16.70
2010,07,14,08,57,16.80
2010,07,14,08,58,16.80
2010,07,14,08,59,16.80
2010,07,14,09,00,16.80
2010,07,14,09,01,16.80
2010,07,14,09,02,16.80
2010,07,14,09,03,16.80
2010,07,14,09,04,16.90
2010,07,14,09,05,16.90
2010,07,14,09,06,16.90
2010,07,14,09,07,16.90
2010,07,14,09,08,16.90
2010,07,14,09,09,16.90
2010,07,14,09,10,16.90
2010,07,14,09,11,16.90
2010,07,14,09,12,17.00
2010,07,14,09,13,17.00
2010,07,14,09,14,17.00
2010,07,14,09,15,17.00
2010,07,14,09,16,17.00
2010,07,14,09,17,17.00
2010,07,14,09,18,17.00
2010,07,14,09,19,17.00
2010,07,14,09,20,17.00
2010,07,14,09,21,17.00
2010,07,14,09,22,17.10
2010,07,14,09,23,17.10
2010,07,14,09,24,17.10
2010,07,14,09,25,17.20
2010,07,14,09,26,17.20
2010,07,14,09,27,17.20
2010,07,14,09,28,17.20
2010,07,14,09,29,17.20
2010,07,14,09,30,17.20
2010,07,14,09,31,17.20
2010,07,14,09,32,17.30
2010,07,14,09,33,17.30
2010,07,14,09,34,17.30
2010,07,14,09,35,17.40
2010,07,14,09,36,17.40
2010,07,14,09,37,17.40
2010,07,14,09,38,17.40
2010,07,14,09,39,17.50
2010,07,14,09,40,17.50
2010,07,14,09,41,17.50
2010,07,14,09,42,17.50
2010,07,14,09,43,17.60
2010,07,14,09,44,17.60
2010,07,14,09,45,17.70
2010,07,14,09,46,17.70
2010,07,14,09,47,17.70
2010,07,14,09,48,17.70
2010,07,14,09,49,17.70
2010,07,14,09,50,17.70
2010,07,14,09,51,17.70
2010,07,14,09,52,17.70
2010,07,14,09,53,17.70
2010,07,14,09,54,17.70
2010,07,14,09,55,17.70
2010,07,14,09,56,17.80
2010,07,14,09,57,17.80
2010,07,14,09,58,17.80
2010,07,14,09,59,17.90
2010,07,14,10,00,17.90
2010,07,14,10,01,17.90
2010,07,14,10,02,17.90
2010,07,14,10,03,18.00
2010,07,14,10,04,18.00
2010,07,14,10,05,18.00
2010,07,14,10,06,18.10
2010,07,14,10,07,18.10
2010,07,14,10,08,18.10
2010,07,14,10,09,18.10
2010,07,14,10,10,18.20
2010,07,14,10,11,18.20
2010,07,14,10,12,18.20
2010,07,14,10,13,18.20
2010,07,14,10,14,18.20
2010,07,14,10,15,18.30
2010,07,14,10,16,18.30
2010,07,14,10,17,18.40
2010,07,14,10,18,18.40
2010,07,14,10,19,18.40
2010,07,14,10,20,18.40
2010,07,14,10,21,18.50
2010,07,14,10,22,18.50
2010,07,14,10,23,18.60
2010,07,14,10,24,18.60
2010,07,14,10,25,18.60
2010,07,14,10,26,18.70
2010,07,14,10,27,18.70
2010,07,14,10,28,18.70
2010,07,14,10,29,18.70
2010,07,14,10,30,18.70
2010,07,14,10,31,18.80
2010,07,14,10,32,18.80
2010,07,14,10,33,18.80
2010,07,14,10,34,18.80
2010,07,14,10,35,18.80
2010,07,14,10,36,18.80
2010,07,14,10,37,18.80
2010,07,14,10,38,18.90
2010,07,14,10,39,18.90
2010,07,14,10,40,19.00
2010,07,14,10,41,19.00
2010,07,14,10,42,19.10
2010,07,14,10,43,19.20
2010,07,14,10,44,19.20
2010,07,14,10,45,19.30
2010,07,14,10,46,19.30
2010,07,14,10,47,19.30
2010,07,14,10,48,19.30
2010,07,14,10,49,19.30
2010,07,14,10,50,19.30
2010,07,14,10,51,19.30
2010,07,14,10,52,19.30
2010,07,14,10,53,19.20
2010,07,14,10,54,19.20
2010,07,14,10,55,19.20
2010,07,14,10,56,19.20
2010,07,14,10,57,19.30
2010,07,14,10,58,19.30
2010,07,14,10,59,19.30
2010,07,14,11,00,19.30
2010,07,14,11,01,19.20
2010,07,14,11,02,19.20
2010,07,14,11,03,19.30
2010,07,14,11,04,19.30
2010,07,14,11,05,19.30
2010,07,14,11,06,19.40
2010,07,14,11,07,19.40
2010,07,14,11,08,19.40
2010,07,14,11,09,19.40
2010,07,14,11,10,19.40
2010,07,14,11,11,19.40
2010,07,14,11,12,19.40
2010,07,14,11,13,19.40
2010,07,14,11,14,19.40
2010,07,14,11,15,19.40
2010,07,14,11,16,19.40
2010,07,14,11,17,19.40
2010,07,14,11,18,19.40
2010,07,14,11,19,19.50
2010,07,14,11,20,19.50
2010,07,14,11,21,19.50
2010,07,14,11,22,19.50
2010,07,14,11,23,19.60
2010,07,14,11,24,19.60
2010,07,14,11,25,19.60
2010,07,14,11,26,19.60
2010,07,14,11,27,19.60
2010,07,14,11,28,19.70
2010,07,14,11,29,19.70
2010,07,14,11,30,19.70
2010,07,14,11,31,19.70
2010,07,14,11,32,19.70
2010,07,14,11,33,19.70
2010,07,14,11,34,19.70
2010,07,14,11,35,19.60
2010,07,14,11,36,19.60
2010,07,14,11,37,19.60
2010,07,14,11,38,19.70
2010,07,14,11,39,19.70
2010,07,14,11,40,19.80
2010,07,14,11,41,19.90
2010,07,14,11,42,19.90
2010,07,14,11,43,20.00
2010,07,14,11,44,20.00
2010,07,14,11,45,20.00
2010,07,14,11,46,20.10
2010,07,14,11,47,20.10
2010,07,14,11,48,20.10
2010,07,14,11,49,20.10
2010,07,14,11,50,20.10
2010,07,14,11,51,20.10
2010,07,14,11,52,20.20
2010,07,14,11,53,20.30
2010,07,14,11,54,20.30
2010,07,14,11,55,20.30
2010,07,14,11,56,20.40
2010,07,14,11,57,20.40
2010,07,14,11,58,20.40
2010,07,14,11,59,20.40
2010,07,14,12,00,20.30
2010,07,14,12,01,20.20
2010,07,14,12,02,20.20
2010,07,14,12,03,20.20
2010,07,14,12,04,20.20
2010,07,14,12,05,20.20
2010,07,14,12,14,20.40
2010,07,14,12,15,20.40
2010,07,14,12,16,20.40
2010,07,14,12,17,20.40
2010,07,14,12,18,20.40
2010,07,14,12,19,20.40
2010,07,14,12,20,20.50
2010,07,14,12,21,20.50
2010,07,14,12,22,20.50
2010,07,14,12,23,20.50
2010,07,14,12,24,20.50
2010,07,14,12,25,20.60
2010,07,14,12,26,20.60
2010,07,14,12,27,20.60
2010,07,14,12,28,20.60
2010,07,14,12,29,20.60
2010,07,14,12,30,20.60
2010,07,14,12,31,20.60
2010,07,14,12,32,20.60
2010,07,14,12,33,20.70
2010,07,14,12,34,20.70
2010,07,14,12,35,20.80
2010,07,14,12,36,20.80
2010,07,14,12,37,20.80
2010,07,14,12,38,20.80
2010,07,14,12,39,20.70
2010,07,14,12,40,20.70
2010,07,14,12,41,20.70
2010,07,14,12,42,20.70
2010,07,14,12,43,20.70
2010,07,14,12,44,20.70
2010,07,14,12,45,20.80
2010,07,14,12,46,20.80
2010,07,14,12,47,21.00
2010,07,14,12,48,21.10
2010,07,14,12,49,21.20
2010,07,14,12,50,21.30
2010,07,14,12,51,21.30
2010,07,14,12,52,21.30
2010,07,14,12,53,21.30
2010,07,14,12,54,21.20
2010,07,14,12,55,21.10
2010,07,14,12,56,21.10
2010,07,14,12,57,21.10
2010,07,14,12,58,21.10
2010,07,14,12,59,21.10
2010,07,14,13,00,21.10
2010,07,14,13,01,21.10
2010,07,14,13,02,21.10
2010,07,14,13,03,21.10
2010,07,14,13,04,21.00
2010,07,14,13,05,20.90
2010,07,14,13,06,20.80
2010,07,14,13,07,20.80
2010,07,14,13,08,20.80
2010,07,14,13,09,20.70
2010,07,14,13,10,20.70
2010,07,14,13,11,20.70
2010,07,14,13,12,20.70
2010,07,14,13,13,20.70
2010,07,14,13,14,20.70
2010,07,14,13,15,20.70
2010,07,14,13,16,20.70
2010,07,14,13,17,20.80
2010,07,14,13,18,20.80
2010,07,14,13,19,20.80
2010,07,14,13,20,20.90
2010,07,14,13,21,21.00
2010,07,14,13,22,21.00
2010,07,14,13,23,21.10
2010,07,14,13,24,21.10
2010,07,14,13,25,21.20
2010,07,14,13,26,21.30
2010,07,14,13,27,21.30
2010,07,14,13,28,21.40
2010,07,14,13,29,21.40
2010,07,14,13,30,21.40
2010,07,14,13,31,21.50
2010,07,14,13,32,21.50
2010,07,14,13,33,21.60
2010,07,14,13,34,21.60
2010,07,14,13,35,21.60
2010,07,14,13,36,21.50
2010,07,14,13,37,21.40
2010,07,14,13,38,21.40
2010,07,14,13,39,21.40
2010,07,14,13,40,21.30
2010,07,14,13,41,21.30
2010,07,14,13,42,21.30
2010,07,14,13,43,21.30
2010,07,14,13,44,21.30
2010,07,14,13,45,21.30
2010,07,14,13,46,21.30
2010,07,14,13,47,21.30
2010,07,14,13,48,21.20
2010,07,14,13,49,21.10
2010,07,14,13,50,21.10
2010,07,14,13,51,21.10
2010,07,14,13,52,21.10
2010,07,14,13,53,21.10
2010,07,14,13,54,21.20
2010,07,14,13,55,21.30
2010,07,14,13,56,21.30
2010,07,14,13,57,21.30
2010,07,14,13,58,21.40
2010,07,14,13,59,21.40
2010,07,14,14,00,21.50
2010,07,14,14,01,21.50
2010,07,14,14,02,21.60
2010,07,14,14,03,21.70
2010,07,14,14,04,21.80
2010,07,14,14,05,21.80
2010,07,14,14,06,21.80
2010,07,14,14,07,21.90
2010,07,14,14,08,21.90
2010,07,14,14,09,21.80
2010,07,14,14,10,21.80
2010,07,14,14,11,21.80
2010,07,14,14,12,21.80
2010,07,14,14,13,21.80
2010,07,14,14,14,21.80
2010,07,14,14,15,21.90
2010,07,14,14,16,21.90
2010,07,14,14,17,21.90
2010,07,14,14,18,21.80
2010,07,14,14,19,21.80
2010,07,14,14,20,21.80
2010,07,14,14,21,21.80
2010,07,14,14,22,21.70
2010,07,14,14,23,21.70
2010,07,14,14,24,21.70
2010,07,14,14,25,21.70
2010,07,14,14,26,21.70
2010,07,14,14,27,21.80
2010,07,14,14,28,21.80
2010,07,14,14,29,21.90
2010,07,14,14,30,21.90
2010,07,14,14,31,21.90
2010,07,14,14,32,22.00
2010,07,14,14,33,22.00
2010,07,14,14,34,22.00
2010,07,14,14,35,22.00
2010,07,14,14,36,22.00
2010,07,14,14,37,22.00
2010,07,14,14,38,22.00
2010,07,14,14,39,22.00
2010,07,14,14,40,22.10
2010,07,14,14,41,22.10
2010,07,14,14,42,22.10
2010,07,14,14,43,22.20
2010,07,14,14,44,22.20
2010,07,14,14,45,22.20
2010,07,14,14,46,22.20
2010,07,14,14,47,22.20
2010,07,14,14,48,22.20
2010,07,14,14,49,22.20
2010,07,14,14,50,22.30
2010,07,14,14,51,22.30
2010,07,14,14,52,22.40
2010,07,14,14,53,22.50
2010,07,14,14,54,22.50
2010,07,14,14,55,22.50
2010,07,14,14,56,22.50
2010,07,14,14,57,22.50
2010,07,14,14,58,22.40
2010,07,14,14,59,22.40
2010,07,14,15,00,22.30
2010,07,14,15,01,22.30
2010,07,14,15,02,22.30
2010,07,14,15,03,22.20
2010,07,14,15,04,22.20
2010,07,14,15,05,22.10
2010,07,14,15,06,22.00
2010,07,14,15,07,21.90
2010,07,14,15,08,21.80
2010,07,14,15,09,21.80
2010,07,14,15,10,21.80
2010,07,14,15,11,21.80
2010,07,14,15,12,21.80
2010,07,14,15,13,21.80
2010,07,14,15,14,21.90
2010,07,14,15,15,21.90
2010,07,14,15,16,21.90
2010,07,14,15,17,21.90
2010,07,14,15,18,22.00
2010,07,14,15,19,22.00
2010,07,14,15,20,22.10
2010,07,14,15,21,22.20
2010,07,14,15,22,22.20
2010,07,14,15,23,22.20
2010,07,14,15,24,22.10
2010,07,14,15,25,22.10
2010,07,14,15,26,22.10
2010,07,14,15,27,22.10
2010,07,14,15,28,22.10
2010,07,14,15,29,22.10
2010,07,14,15,30,22.10
2010,07,14,15,31,22.10
2010,07,14,15,32,22.10
2010,07,14,15,33,22.10
2010,07,14,15,34,22.10
2010,07,14,15,35,22.10
2010,07,14,15,36,22.10
2010,07,14,15,37,22.00
2010,07,14,15,38,22.00
2010,07,14,15,39,22.00
2010,07,14,15,40,22.00
2010,07,14,15,41,22.00
2010,07,14,15,42,22.00
2010,07,14,15,43,22.00
2010,07,14,15,44,22.00
2010,07,14,15,45,22.00
2010,07,14,15,46,22.10
2010,07,14,15,47,22.10
2010,07,14,15,48,22.10
2010,07,14,15,49,22.10
2010,07,14,15,50,22.00
2010,07,14,15,51,22.00
2010,07,14,15,52,22.00
2010,07,14,15,53,22.00
2010,07,14,15,54,22.10
2010,07,14,15,55,22.10
2010,07,14,15,56,22.10
2010,07,14,15,57,22.10
2010,07,14,15,58,22.00
2010,07,14,15,59,21.90
2010,07,14,16,00,21.90
2010,07,14,16,01,21.80
2010,07,14,16,02,21.80
2010,07,14,16,03,21.90
2010,07,14,16,04,22.00
2010,07,14,16,05,22.00
2010,07,14,16,06,22.00
2010,07,14,16,07,21.90
2010,07,14,16,08,21.90
2010,07,14,16,09,21.80
2010,07,14,16,10,21.80
2010,07,14,16,11,21.80
2010,07,14,16,12,21.80
2010,07,14,16,13,21.80
2010,07,14,16,14,21.80
2010,07,14,16,15,21.70
2010,07,14,16,16,21.70
2010,07,14,16,17,21.80
2010,07,14,16,18,21.80
2010,07,14,16,19,21.80
2010,07,14,16,20,21.90
2010,07,14,16,21,21.90
2010,07,14,16,22,22.00
2010,07,14,16,23,22.00
2010,07,14,16,24,22.00
2010,07,14,16,25,22.10
2010,07,14,16,26,22.20
2010,07,14,16,27,22.20
2010,07,14,16,28,22.30
2010,07,14,16,29,22.30
2010,07,14,16,30,22.30
2010,07,14,16,31,22.30
2010,07,14,16,32,22.30
2010,07,14,16,33,22.30
2010,07,14,16,34,22.20
2010,07,14,16,35,22.20
2010,07,14,16,36,22.30
2010,07,14,16,37,22.30
2010,07,14,16,38,22.40
2010,07,14,16,39,22.40
2010,07,14,16,40,22.50
2010,07,14,16,41,22.60
2010,07,14,16,42,22.70
2010,07,14,16,43,22.70
2010,07,14,16,44,22.60
2010,07,14,16,45,22.60
2010,07,14,16,46,22.50
2010,07,14,16,47,22.50
2010,07,14,16,48,22.40
2010,07,14,16,49,22.40
2010,07,14,16,50,22.50
2010,07,14,16,51,22.50
2010,07,14,16,52,22.40
2010,07,14,16,53,22.40
2010,07,14,16,54,22.40
2010,07,14,16,55,22.40
2010,07,14,16,56,22.30
2010,07,14,16,57,22.30
2010,07,14,16,58,22.30
2010,07,14,16,59,22.30
2010,07,14,17,00,22.20
2010,07,14,17,01,22.20
2010,07,14,17,02,22.20
2010,07,14,17,03,22.30
2010,07,14,17,04,22.20
2010,07,14,17,05,22.20
2010,07,14,17,06,22.10
2010,07,14,17,07,22.10
2010,07,14,17,08,22.10
2010,07,14,17,09,22.10
2010,07,14,17,10,22.10
2010,07,14,17,11,22.10
2010,07,14,17,12,22.10
2010,07,14,17,13,22.10
2010,07,14,17,14,22.10
2010,07,14,17,15,22.00
2010,07,14,17,16,22.00
2010,07,14,17,17,22.00
2010,07,14,17,18,21.90
2010,07,14,17,19,21.90
2010,07,14,17,20,21.80
2010,07,14,17,21,21.80
2010,07,14,17,22,21.80
2010,07,14,17,23,21.80
2010,07,14,17,24,21.70
2010,07,14,17,25,21.70
2010,07,14,17,26,21.70
2010,07,14,17,27,21.70
2010,07,14,17,28,21.70
2010,07,14,17,29,21.70